Weather History for KMFR - November, 2012

Change the Weather History Date:

Monday, November 12, 2012

  Actual Average Record
Temperature  
Mean Temperature 47 °F 46 °F  
Max Temperature 52 °F 54 °F 75 °F (1999)
Min Temperature 41 °F 37 °F 17 °F (1985)
Degree Days  
Heating Degree Days 18 19  
Month to date heating degree days 189 211  
Since 1 July heating degree days 431 571  
Cooling Degree Days 0 0  
Month to date cooling degree days 0 0  
Year to date cooling degree days 960 829  
Moisture  
Dew Point 42 °F    
Average Humidity 82    
Maximum Humidity 93    
Minimum Humidity 71    
Precipitation  
Precipitation 0.14 in 0.09 in 0.99 in (1962)
Month to date precipitation 0.44 1.03  
Year to date precipitation 16.52 12.87  
Snow  
Snow 0.00 in 0.00 in - ()
Month to date snowfall 0.0 0.0  
Since 1 July snowfall 0.0 0.0  
Snow Depth 0.00 in    
Sea Level Pressure  
Sea Level Pressure 30.30 in    
Wind  
Wind Speed 2 mph (NNW)    
Max Wind Speed 8 mph    
Max Gust Speed 12 mph    
Visibility 8 miles    
Events Rain    
T = Trace of Precipitation, MM = Missing Value Source: NWS Daily Summary

Daily Weather History Graph

Daily Weather History Graph

Search for Another Location

Airport or City:

Trip Planner

Search our weather history database for the weather conditions in past years. The results will help you decide how hot, cold, wet, or windy it might be!

Date:

Astronomy

Nov. 12, 2012 Rise Set
Actual Time 6:59 AM PST 4:51 PM PST
Civil Twilight 6:29 AM PST 5:21 PM PST
Nautical Twilight 5:55 AM PST 5:55 PM PST
Astronomical Twilight 5:22 AM PST 6:28 PM PST
Moon 5:30 AM PST (11/12) 4:01 PM PST (11/12)
Length of Visible Light 10h 52m
Length of Day
9h 52m
Waning Crescent, 2% of the Moon is Illuminated
Nov 12
Waning Crescent
Nov 13
New
Nov 20
First Quarter
Nov 28
Full
Dec 6
Last Quarter

Hourly Weather History & Observations

Time (PST) Temp. Windchill Dew Point Humidity Pressure Visibility Wind Dir Wind Speed Gust Speed Precip Events Conditions
12:53 AM 42.1 °F - 37.9 °F 85% 30.33 in 10.0 mi Calm Calm - N/A   Overcast
1:53 AM 42.1 °F - 37.9 °F 85% 30.32 in 10.0 mi Calm Calm - 0.00 in Rain Light Rain
2:53 AM 41.0 °F 39.0 °F 39.0 °F 93% 30.33 in 7.0 mi NW 3.5 mph - 0.04 in Rain Light Rain
3:53 AM 41.0 °F - 39.0 °F 93% 30.31 in 8.0 mi Calm Calm - 0.05 in Rain Light Rain
4:53 AM 41.0 °F - 37.9 °F 89% 30.31 in 10.0 mi Calm Calm - 0.00 in   Overcast
5:53 AM 41.0 °F - 39.0 °F 93% 30.31 in 9.0 mi Calm Calm - N/A   Overcast
6:53 AM 41.0 °F - 39.0 °F 93% 30.31 in 8.0 mi Calm Calm - N/A   Overcast
7:53 AM 41.0 °F - 39.0 °F 93% 30.32 in 9.0 mi Calm Calm - N/A   Mostly Cloudy
8:26 AM 42.8 °F - 39.2 °F 87% 30.30 in 8.0 mi Calm Calm - N/A   Overcast
8:53 AM 43.0 °F 40.3 °F 39.9 °F 89% 30.32 in 10.0 mi North 4.6 mph - N/A   Mostly Cloudy
9:04 AM 42.8 °F - 39.2 °F 87% 30.30 in 10.0 mi Calm Calm - N/A   Scattered Clouds
9:53 AM 45.0 °F - 41.0 °F 86% 30.32 in 10.0 mi Calm Calm - N/A   Overcast
10:53 AM 46.9 °F - 42.1 °F 83% 30.32 in 10.0 mi Calm Calm - 0.00 in   Overcast
11:53 AM 48.9 °F - 42.1 °F 77% 30.30 in 10.0 mi North 3.5 mph - N/A   Overcast
12:53 PM 50.0 °F - 42.1 °F 74% 30.28 in 10.0 mi North 5.8 mph - N/A   Overcast
1:53 PM 50.0 °F - 42.1 °F 74% 30.27 in 10.0 mi NNW 3.5 mph - N/A   Mostly Cloudy
2:53 PM 51.1 °F - 43.0 °F 74% 30.26 in 10.0 mi WNW 5.8 mph - 0.00 in   Mostly Cloudy
3:53 PM 48.9 °F - 43.0 °F 80% 30.27 in 10.0 mi NW 3.5 mph - 0.01 in Rain Light Rain
4:53 PM 48.0 °F - 44.1 °F 86% 30.27 in 10.0 mi WNW 4.6 mph - 0.01 in Rain Light Rain
5:53 PM 46.9 °F - 44.1 °F 90% 30.28 in 7.0 mi Calm Calm - 0.01 in   Overcast
6:53 PM 48.0 °F - 44.1 °F 86% 30.29 in 6.0 mi Calm Calm - 0.00 in Rain Light Rain
7:53 PM 48.0 °F - 45.0 °F 89% 30.29 in 6.0 mi Calm Calm - 0.01 in   Overcast
8:49 PM 46.4 °F - 44.6 °F 93% 30.28 in 7.0 mi Calm Calm - 0.00 in Rain Light Rain
8:50 PM 46.9 °F - 45.0 °F 93% 30.29 in 7.0 mi NE 3.5 mph - 0.00 in Rain Light Rain
9:44 PM 46.4 °F - 44.6 °F 93% 30.28 in 5.0 mi Calm Calm - 0.01 in   Overcast
9:53 PM 46.9 °F - 45.0 °F 93% 30.29 in 6.0 mi Calm Calm - 0.01 in   Overcast
10:32 PM 46.4 °F - 44.6 °F 93% 30.28 in 5.0 mi Calm Calm - N/A   Overcast
10:53 PM 46.0 °F - 45.0 °F 96% 30.28 in 4.0 mi Calm Calm - N/A   Overcast
11:53 PM 46.9 °F - 45.0 °F 93% 30.28 in 6.0 mi Calm Calm - N/A   Overcast